Location: Lawrence Hall of Science
(37.8785°N, 122.2415°W)
Time: 09:08:53
(UTC-07:00)

ARGOS - Visible Passes

Search period start: 23 June 2018 00:00
Search period end: 03 July 2018 00:00
Orbit: 821 x 834 km, 98.6° (Epoch: 22 June)

Date Brightness Start Highest point End Pass type
(mag) Time Alt. Az. Time Alt. Az. Time Alt. Az.
23 Jun 3.2 21:59:18 14° SSE 22:03:58 85° WSW 22:09:25 10° NNW visible
24 Jun 3.2 21:40:29 12° SSE 21:45:25 66° ENE 21:50:48 10° N visible
24 Jun 5.5 23:23:16 10° WSW 23:26:05 14° W 23:28:56 10° WNW visible
25 Jun 3.7 21:21:48 10° SE 21:26:56 44° ENE 21:32:03 10° N visible
25 Jun 5.1 23:03:14 10° SW 23:07:20 22° W 23:11:26 10° NW visible
26 Jun 4.2 21:03:48 10° SE 21:08:28 30° ENE 21:13:09 10° N visible
26 Jun 4.6 22:44:21 13° SSW 22:48:36 32° W 22:53:26 10° NW visible
27 Jun 3.9 22:25:32 14° S 22:29:56 48° W 22:35:11 10° NNW visible
28 Jun 3.3 22:06:44 15° S 22:11:19 72° WSW 22:16:45 10° NNW visible
29 Jun 3.2 21:47:54 13° SSE 21:52:45 78° ENE 21:58:11 10° N visible
29 Jun 5.6 23:31:39 10° WSW 23:33:32 12° W 23:35:25 10° WNW visible
30 Jun 3.5 21:29:06 10° SSE 21:34:14 52° ENE 21:39:30 10° N visible
30 Jun 5.3 23:11:06 10° SW 23:14:45 18° W 23:18:25 10° NW visible
01 Jul 4.0 21:10:53 10° SE 21:15:46 35° ENE 21:20:39 10° N visible
01 Jul 4.8 22:51:47 11° SSW 22:56:01 27° W 23:00:35 10° NW visible
02 Jul 4.2 22:33:00 14° SSW 22:37:19 40° W 22:42:25 10° NNW visible
